Home > Weather > Johannesburg > Past weeks

Flag for South Africa Past Weather in Johannesburg, South Africa — Yesterday and Last 2 Weeks

Now
55 °F

Clear.


Feels Like: 53 °F
Forecast: 41 / 63 °F
Wind: 8 mph from Southwest

Location: Lanseria Civ / Mil

Current Time: May 30, 2016 at 8:36:03 PM

Latest Report: May 30, 2016 at 8:00 PM


Visibility: 10 mi

Pressure: 30.36 "Hg (24.62 "Hg at 1754m altitude)

Humidity: 55%

Dew Point: 39 °F

Location of JohannesburgLocation

Past Weather in Johannesburg — Graph

°F

Johannesburg Temperature Yesterday

Maximum temperature yesterday: 70 °F (at 2:00 PM)
Minimum temperature yesterday: 43 °F (at 6:00 AM)
Average temperature yesterday: 58 °F

High & Low Weather Summary for the Past Weeks

 TemperatureHumidityPressure
High72 °F (May 17, 2:00 PM)100% (May 16, 7:00 AM)30.57 "Hg (May 16, 7:00 AM)
Low39 °F (May 30, 7:00 AM)26% (May 25, 1:00 PM)30.30 "Hg (May 25, 2:00 PM)
Average58 °F66%30.43 "Hg
* Reported May 15 7:00 PM — May 30 7:00 PM, Johannesburg, Weather by CustomWeather, © 2016

Note: Actual official high and low records may vary slightly from our data, if they occured in-between our weather recording intervals... More about our weather records

Advertising

Johannesburg Weather History for the Previous 24 Hours

Scroll right to see more
 ConditionsComfort  
Time TempWeatherWind HumidityBarometerVisibility
7:00 PM
Mon, May 30
61 °FClear.No wind42%30.33 "Hg10 mi
6:00 PM63 °FClear.5 mph42%30.33 "Hg10 mi
5:00 PM64 °FClear.8 mph40%30.30 "Hg10 mi
4:00 PM68 °FSunny.9 mph33%30.30 "Hg10 mi
3:00 PM68 °FPassing clouds.9 mph30%30.30 "HgN/A
2:00 PM68 °FPassing clouds.7 mph33%30.30 "HgN/A
1:00 PM68 °FSunny.3 mph28%30.33 "Hg10 mi
12:48 PM68 °FSunny.5 mph30%30.33 "Hg10 mi
12:00 PM64 °FSunny.6 mph32%30.39 "Hg10 mi
11:00 AM63 °FPassing clouds.5 mph37%30.42 "HgN/A
10:00 AM55 °FPassing clouds.3 mph55%30.42 "HgN/A
9:00 AM50 °FSunny.No wind67%30.42 "Hg10 mi
8:00 AM45 °FSunny.No wind81%30.42 "Hg10 mi
7:00 AM39 °FSunny.2 mph93%30.39 "Hg10 mi
6:00 AM43 °FSunny.5 mph87%30.39 "Hg10 mi
5:00 AM45 °FClear.No wind81%30.36 "Hg10 mi
10:00 PM
Sun, May 29
54 °FPassing clouds.6 mph63%30.36 "HgN/A
9:00 PM54 °FClear.8 mph63%30.39 "Hg10 mi
8:00 PM59 °FClear.5 mph48%30.39 "Hg10 mi
Weather by CustomWeather, © 2016

See weather overviewHow to use our weather pages